STARLINK-11137, 60050

Orbit data source: Space-Track

STARLINK-11137, 60050 is a payload satellite owned by SpaceX/Seattle (US) in LEO that was launched on Sat, 08 Jun 2024 UTC via an FALCON 9 launch vehicle from the Air Force Western Test Range (AFWTR). Payload-class satellites include a variety of spacecraft equipped with specific instruments for various scientific and technological missions. These include communications satellites like Starlink; space stations such as the ISS; scientific satellites like the Hubble; Earth observation satellites from companies like Planet Labs, Umbra, and HawkEye 360; GPS; miniature CubeSats for education and research; and military/defense satellites.

Loading next visibility...
Identifier
60050, 2024-112N
Orbit
LEO
Country
Flag of USUS
Related business
Manufacturer
SpaceX/Seattle
Mission
Operational Commercial Communications
Bus & Motor
STARLINK V2MD, Unknown motor
Mass
960 kg wet, ~910 kg dry
Launch date (UTC)
2024-06-08 (2 years ago)
Launch vehicle
FALCON 9
Launch site
Air Force Western Test Range (AFWTR)
Object type
Payload
Rocket body
Debris
Shape & HBR
Box + 2 Pan, 18.1 m
Radar Cross Section
36.964 m², Large (>1 m²)

Expand to show TLE details & history
Last TLE update: 2 days ago

TLE from 2 days ago
0 STARLINK-11137
1 60050U 24112N   26170.16994066 -.00000286  00000-0  24972-5 0  9994
2 60050  53.1594 125.7139 0001094  90.0420 270.0724 15.69706586116921
Epoch: 2026-06-19T04:04Z
TLE epoch observation values (Epoch: 2026-06-19T04:04:42.873Z)
Latitude
0.00006°
Longitude
157.13254°
Altitude
360.651 km
Speed
7.694 km/s
True Right ascension
08h 22m 51s
True Declination
0° 00' 00"
Sunlit
Object was in daylight at epoch
Visualization orbit readout
Latitude
Unknown
Longitude
Unknown
Altitude
Unknown
Speed
Unknown
Apparent Right ascension
Unknown
Apparent Declination
Unknown
Sunlit
N/A
Visualization observer readout
Local Sidereal Time
07:13:36
Azimuth
Unknown
Elevation
Unknown
Doppler factor
Unknown
Orbital elements
Apogee altitude
360.734 km
Perigee altitude
359.26 km
Semi-major axis
6,738.134 km
Eccentricity
0.00011
Inclination
53.1594°
RAAN
125.7139°
Arg. of periapsis
90.042°
True anomaly
270.05986°
Mean anomaly
270.0724°
Eccentric anomaly
270.06613°
Mean motion
3.92404 °/min
Orbital period
91.74 mins
BSTAR
0.0000024972
Loading maneuver chart data...
Computing Atmospheric mass density...
Loading historical data...
Loading historical data...
Loading historical data...
Loading historical data...
Loading historical data...
Loading historical data...
Loading historical data...

Documentation

Showing up to 5 results
|